Zurück zum Katalog

CHUBUSAT 2

AktivAmateurfunkVLEO
NORAD 41338·PAYLOAD·🇯🇵 Japan

Gestartet Feb 17, 2016 von Tanegashima Space Center

Loading…

Nächste Überflüge (nächste 24 Stunden)

TLE

AktuellSource: Space-Track

Epoche: Sep 14, 2026, 15:18 UTC

1 41338U 16012B   26257.63817060  .00004576  00000-0  19226-3 0  9997
2 41338  30.9966  93.9990 0008610 276.1789  83.7871 15.21665836582055

Verfolge CHUBUSAT 2 in Echtzeit mit AllMySat

Download on the App Store